Location: Kitchener-Waterloo
(43.4500°N, 80.5000°W)
Time: 04:58:37
(UTC-04:00)

Daily predictions for brighter satellites

Satellite Brightness Start Highest point End
(mag) Time Altitude Azimuth Time Altitude Azimuth Time Altitude Azimuth
CZ-4C R/B 4.4 03:29:15 29° E 03:29:15 29° E 03:33:44 10° ESE
ADEOS II 3.6 04:21:51 10° NNE 04:25:34 34° ENE 04:25:34 34° ENE
Cosmos 1943 Rocket 3.5 04:29:43 34° NE 04:29:43 34° NE 04:32:50 10° NNE
Milstar 3 4.3 04:45:28 22° SSE 04:45:28 22° SSE 04:49:18 10° SE
SJ 16-02 4.4 04:49:41 10° ESE 04:51:20 12° E 04:52:59 10° ENE
Cosmos 2298 Rocket 4.3 05:08:50 61° N 05:08:50 61° N 05:13:13 10° NNE
Nadezhda 1 Rocket 3.9 05:08:43 60° S 05:10:01 88° W 05:16:25 10° N
Cosmos 2369 Rocket 3.5 05:14:25 28° NNW 05:14:25 28° NNW 05:17:38 10° N
USA 215 3.9 05:06:54 10° NE 05:12:49 38° NNW 05:13:34 37° NW
CZ-3 R/B 4.4 05:05:18 35° WSW 05:14:27 43° SSW 05:25:30 10° SE
CZ-4C R/B 2.8 05:14:33 58° W 05:15:40 65° WSW 05:23:33 10° SSE
Okean O Rocket 1.8 05:23:38 10° NNE 05:28:02 69° ESE 05:29:16 45° SSE
NOSS 3-1 (C) 3.7 05:27:28 31° SSW 05:30:15 64° ESE 05:36:34 10° NE
Lacrosse 5 3.5 05:31:18 21° NNW 05:31:26 21° NNW 05:35:18 10° NNE
Meteor 1-31 Rocket 4.3 05:28:28 10° NNE 05:32:00 35° E 05:35:30 10° SSE
USA 229 DEB 3.6 05:30:27 51° WSW 05:32:09 68° NW 05:39:07 10° NNE
USA 229 3.6 05:30:31 50° WSW 05:32:15 69° NW 05:39:11 10° NNE
Cosmos-2242 3.6 05:29:16 10° N 05:33:30 55° E 05:37:43 10° SSE
Cosmos 1340 Rocket 4.5 05:37:42 24° N 05:37:42 24° N 05:39:30 10° N
Tiangong 2 3.5 05:38:00 18° SSE 05:38:00 18° SSE 05:39:06 10° SE
NOSS 3-1 (A) 4.1 05:31:55 16° S 05:36:24 51° ESE 05:42:34 10° NE
Cosmos 1758 Rocket 3.4 05:37:04 76° SW 05:37:20 81° W 05:41:52 10° N
Cosmos 1707 3.2 05:40:32 52° N 05:40:32 52° N 05:43:35 10° N
Cosmos 2219 3.4 05:35:09 10° NNW 05:40:51 71° ENE 05:46:28 10° SSE
Cosmos 1378 3.7 05:43:37 46° N 05:43:37 46° N 05:46:23 10° N
MOS 1-B 4.4 05:37:23 10° N 05:43:00 54° WNW 05:44:23 44° WSW
Cosmos 2154 Rocket 3.9 05:36:45 10° NNW 05:43:02 64° W 05:49:14 10° S
BREEZE-M DEB (TANK) 2.8 05:42:44 56° SW 05:43:35 81° SSE 05:53:21 10° ENE
USA 267 3.7 05:38:48 10° SSE 05:44:46 38° SW 05:45:24 37° WSW
CZ-2C R/B 4.2 05:43:07 10° SSE 05:47:48 63° ENE 05:52:28 10° N
CZ-4B R/B 4.5 05:47:23 10° N 05:48:40 20° N 05:48:40 20° N
Cosmos 2297 Rocket 4.0 05:46:06 10° N 05:51:02 29° NE 05:55:55 10° ESE
Cosmos 1656 Rocket 3.7 05:49:54 39° WSW 05:51:49 59° WNW 05:57:25 10° NNE
SL-8 Rocket 4.3 05:47:16 10° N 05:53:36 72° E 05:59:54 10° SSE
Meteor 2-5 Rocket 3.8 05:49:36 10° S 05:55:31 88° E 06:01:22 10° N
Meteor 2-21 4.3 05:50:00 10° N 05:56:06 87° WSW 06:02:11 10° S
PAYLOAD B 4.1 05:50:45 10° N 05:56:15 72° WNW 06:01:44 10° SSW
COSMO-SKYMED 1 4.3 05:52:32 10° SE 05:56:26 33° ENE 06:00:20 10° N
Cosmos 1269 Rocket 4.3 05:54:52 10° NNW 06:00:11 69° ENE 06:05:27 10° SSE
CZ-4B DEB 4.1 05:55:54 10° N 06:01:21 69° WNW 06:06:49 10° SSW
EO 1 Del DPAF 4.3 05:59:32 10° SE 06:03:11 47° ENE 06:06:54 10° N
ADEOS II 2.9 06:01:51 10° N 06:06:20 29° WNW 06:06:30 29° WNW
Meteor 1-16 Rocket 4.2 06:01:00 10° NNW 06:06:39 69° W 06:12:25 10° S
Cosmos 468 4.5 06:03:09 10° NNW 06:08:24 64° WSW 06:13:38 10° S
Cosmos 1842 Rocket 4.2 06:05:12 10° N 06:09:31 55° E 06:13:46 10° SSE
Cosmos 372 Rocket 4.0 06:04:39 10° SSW 06:09:51 84° ESE 06:15:08 10° NNE
Cosmos 1943 Rocket 3.4 06:11:16 21° NW 06:11:37 21° NW 06:15:46 10° N
CZ-4B R/B 3.2 06:09:44 10° N 06:15:05 58° WNW 06:20:30 10° SSW
Landsat 4 3.6 06:11:47 10° S 06:15:31 62° WSW 06:19:16 10° NNW
IDEFIX/ARIANE 42P 4.4 06:12:13 10° NNE 06:16:58 34° E 06:21:40 10° SSE
Meteor 2-14 Rocket 4.3 06:12:36 10° NNW 06:18:40 75° W 06:24:42 10° S
Cosmos 2218 Rocket 4.0 06:14:08 10° N 06:20:24 86° W 06:26:42 10° S
Meteor 2-16 Rocket 4.4 06:17:06 10° N 06:23:17 81° W 06:29:26 10° S
Cosmos 1125 Rocket 3.5 06:19:24 10° SSW 06:24:37 67° WNW 06:29:55 10° NNE
IRS-1C Rocket 4.2 06:20:36 10° N 06:25:43 51° WNW 06:30:47 10° SW
CZ-4B R/B 4.2 06:21:54 10° N 06:26:17 56° WNW 06:30:41 10° SSW
ERBS 2.3 06:24:42 28° WNW 06:26:19 61° SW 06:29:44 10° SE
Meteor PRIRODA 4.1 06:23:04 10° N 06:26:35 39° WNW 06:30:07 10° SW
Meteor 1-28 Rocket 3.1 06:23:34 10° S 06:27:21 66° W 06:31:10 10° NNW
SJ 16-02 1.3 06:24:57 10° SSW 06:29:19 65° WNW 06:33:42 10° NNE
NOAA 6 4.3 06:24:18 10° NNE 06:29:29 74° ESE 06:34:38 10° S
Cosmos 1356 Rocket 4.1 06:28:57 10° SW 06:32:52 35° WNW 06:36:51 10° N
MTI 3.9 06:32:32 10° S 06:35:41 49° W 06:38:52 10° NNW
Cosmos 2181 Rocket 4.3 06:32:26 10° SSW 06:38:20 44° WNW 06:44:13 10° N
Intercosmos 24 4.2 06:33:43 10° NNW 06:38:24 46° W 06:42:00 10° SSW
MINOTAUR R/B 4.4 06:38:34 16° NW 06:40:26 45° WSW 06:42:58 10° S
SKYMED 2 3.5 06:40:02 10° S 06:44:21 76° WSW 06:48:43 10° NNW
Cosmos 2278 4.4 06:40:07 10° S 06:45:38 59° ESE 06:51:11 10° NNE
USA 116 4.5 06:48:35 10° SSW 06:51:44 28° W 06:55:16 10° NNW
Cosmos 2251 Rocket 4.2 06:46:59 10° NNW 06:52:20 60° ENE 06:57:38 10° SSE
CZ-2C R/B 3.3 06:48:18 10° NNE 06:53:11 56° E 06:58:11 10° S
DEBRIS 4.0 06:47:01 13° W 06:54:20 43° NNW 06:57:22 10° ENE
Meteor 1-24 Rocket 4.1 06:50:21 10° SSW 06:56:08 48° WNW 07:01:52 10° N
Cosmos 2227 Rocket 2.2 06:51:56 10° NNW 06:57:38 77° WSW 07:03:17 10° SSE
Cosmos 1674 2.5 06:56:23 10° SSW 07:00:06 77° W 07:03:51 10° N
CZ-4C R/B 4.4 07:00:01 10° W 07:03:18 13° WSW 07:06:40 10° SW
Okean O Rocket 3.4 07:01:44 10° NNW 07:03:50 13° WNW 07:05:57 10° W
Meteor 1-31 Rocket 4.2 07:03:39 10° NNW 07:06:11 17° WNW 07:08:44 10° WSW
Cosmos 1607 4.3 07:05:33 10° NNW 07:12:04 77° NE 07:18:32 10° SE
ATLAS 2AS CENTAUR R/B 4.1 07:08:01 10° S 07:15:25 53° ESE 07:23:14 10° NE
Cosmos 1726 2.2 07:11:50 10° N 07:15:30 83° E 07:19:10 10° S
Lacrosse 5 3.8 07:12:34 10° NW 07:16:04 18° N 07:19:33 10° NE
